Satellite-Ground Cal/Val Site Overpasses Predictions

Prediction of Satellite NPP Overpassing Cal/Val Site: Antarctic Dome C

Ground Cal/Val Site Location: Latitude: -75.10, Longitude: 123.35; Satellite-Ground Site NADIR distance within 100 km.

Table of predicted overpasses for the next 14.0 days since TLE Epoch: 10/28/2015
Interval Starting Time Ending Time Minimum Distance Time Minimum Distance (km)
1 10/29/2015 14:45:07 10/29/2015 14:45:31 10/29/2015 14:45:19 54.74
2 10/30/2015 07:46:48 10/30/2015 07:47:07 10/30/2015 07:46:57 74.29
3 10/31/2015 07:27:53 10/31/2015 07:28:21 10/31/2015 07:28:07 33.68
4 11/02/2015 15:10:17 11/02/2015 15:10:27 11/02/2015 15:10:22 92.16
5 11/03/2015 14:51:17 11/03/2015 14:51:46 11/03/2015 14:51:32 19.21
6 11/05/2015 07:34:05 11/05/2015 07:34:34 11/05/2015 07:34:20 3.81
7 11/08/2015 14:57:29 11/08/2015 14:57:58 11/08/2015 14:57:43 17.37
8 11/09/2015 14:38:47 11/09/2015 14:39:00 11/09/2015 14:38:54 89.62
9 11/10/2015 07:40:18 11/10/2015 07:40:45 11/10/2015 07:40:32 39.04


<
